| time (UTC) | temp F | wind direction | speed MPH | gust MPH | rain 1hr in | rain 24hr in | rain mn in | humidity % | barometer mb |
| 20260507183012 | 95 | 250 | 5.0 | 12.0 | 0.00 | 0.00 | 0.00 | 43 | 1014.2 |
| 20260507181514 | 95 | 259 | 3.0 | 11.0 | 0.00 | 0.00 | 0.00 | 45 | 1014.5 |
| 20260507180028 | 95 | 247 | 3.0 | 6.0 | 0.00 | 0.00 | 0.00 | 46 | 1014.7 |
| 20260507174526 | 94 | 245 | 4.0 | 8.0 | 0.00 | 0.00 | 0.00 | 46 | 1014.9 |
| 20260507173007 | 95 | 262 | 2.0 | 7.0 | 0.00 | 0.00 | 0.00 | 46 | 1014.9 |
| 20260507171512 | 93 | 145 | 3.0 | 6.0 | 0.00 | 0.00 | 0.00 | 50 | 1014.9 |
| 20260507170016 | 94 | 298 | 3.0 | 5.0 | 0.00 | 0.00 | 0.00 | 49 | 1015.0 |
| 20260507164529 | 93 | 205 | 2.0 | 6.0 | 0.00 | 0.00 | 0.00 | 51 | 1015.2 |
| 20260507163026 | 92 | 236 | 3.0 | 6.0 | 0.00 | 0.00 | 0.00 | 52 | 1015.3 |
| 20260507161508 | 92 | 169 | 2.0 | 5.0 | 0.00 | 0.00 | 0.00 | 54 | 1015.4 |
| 20260507160012 | 92 | 267 | 2.0 | 6.0 | 0.00 | 0.00 | 0.00 | 53 | 1015.7 |
| 20260507154520 | 90 | 263 | 2.0 | 9.0 | 0.00 | 0.00 | 0.00 | 55 | 1015.9 |
| 20260507153022 | 90 | 183 | 1.0 | 6.0 | 0.00 | 0.00 | 0.00 | 55 | 1016.0 |
| 20260507151525 | 89 | 274 | 2.0 | 6.0 | 0.00 | 0.00 | 0.00 | 57 | 1016.1 |
| 20260507150010 | 87 | 204 | 2.0 | 6.0 | 0.00 | 0.00 | 0.00 | 61 | 1016.1 |
| 20260507144514 | 87 | 236 | 2.0 | 5.0 | 0.00 | 0.00 | 0.00 | 62 | 1016.2 |
| 20260507143022 | 86 | 246 | 2.0 | 7.0 | 0.00 | 0.00 | 0.00 | 63 | 1016.3 |
| 20260507141525 | 85 | 307 | 1.0 | 6.0 | 0.00 | 0.00 | 0.00 | 65 | 1016.2 |
| 20260507140026 | 85 | 143 | 2.0 | 5.0 | 0.00 | 0.00 | 0.00 | 62 | 1016.2 |
| 20260507134516 | 84 | 152 | 1.0 | 7.0 | 0.00 | 0.00 | 0.00 | 64 | 1016.1 |
| 20260507133016 | 83 | 198 | 2.0 | 6.0 | 0.00 | 0.00 | 0.00 | 66 | 1016.2 |
| 20260507131529 | 81 | 160 | 3.0 | 7.0 | 0.00 | 0.00 | 0.00 | 71 | 1016.2 |
| 20260507130027 | 80 | 278 | 3.0 | 6.0 | 0.00 | 0.00 | 0.00 | 73 | 1016.1 |
| 20260507124525 | 78 | 142 | 1.0 | 4.0 | 0.00 | 0.00 | 0.00 | 75 | 1016.2 |
| 20260507123016 | 77 | 141 | 2.0 | 5.0 | 0.00 | 0.00 | 0.00 | 78 | 1016.3 |
| 20260507121520 | 76 | 146 | 1.0 | 3.0 | 0.00 | 0.00 | 0.00 | 80 | 1016.5 |
| 20260507120037 | 74 | 147 | 1.0 | 2.0 | 0.00 | 0.00 | 0.00 | 84 | 1016.4 |
| 20260507114527 | 72 | 297 | 0.0 | 1.0 | 0.00 | 0.00 | 0.00 | 88 | 1016.1 |
| 20260507113039 | 70 | 162 | 0.0 | 2.0 | 0.00 | 0.00 | 0.00 | 92 | 1016.1 |
| 20260507111515 | 69 | 204 | 0.0 | 2.0 | 0.00 | 0.00 | 0.00 | 93 | 1016.1 |
| 20260507110025 | 68 | 188 | 0.0 | 0.0 | 0.00 | 0.00 | 0.00 | 94 | 1015.9 |
| 20260507104525 | 67 | 187 | 0.0 | 0.0 | 0.00 | 0.00 | 0.00 | 94 | 1015.7 |
| 20260507103030 | 67 | 187 | 0.0 | 0.0 | 0.00 | 0.00 | 0.00 | 94 | 1015.6 |
| 20260507101528 | 67 | 188 | 0.0 | 0.0 | 0.00 | 0.00 | 0.00 | 93 | 1015.5 |
| 20260507100028 | 67 | 188 | 0.0 | 0.0 | 0.00 | 0.00 | 0.00 | 93 | 1015.3 |
| 20260507094521 | 68 | 187 | 0.0 | 0.0 | 0.00 | 0.00 | 0.00 | 93 | 1014.8 |
| 20260507093027 | 68 | 188 | 0.0 | 1.0 | 0.00 | 0.00 | 0.00 | 93 | 1014.7 |
| 20260507091508 | 68 | 160 | 0.0 | 1.0 | 0.00 | 0.00 | 0.00 | 93 | 1014.8 |
| 20260507090015 | 68 | 158 | 0.0 | 1.0 | 0.00 | 0.00 | 0.00 | 93 | 1014.7 |
| 20260507084521 | 67 | 252 | 0.0 | 0.0 | 0.00 | 0.00 | 0.00 | 93 | 1014.7 |
| 20260507083024 | 68 | 252 | 0.0 | 0.0 | 0.00 | 0.00 | 0.00 | 92 | 1014.6 |
| 20260507081532 | 68 | 252 | 0.0 | 0.0 | 0.00 | 0.00 | 0.00 | 92 | 1014.5 |
| 20260507080011 | 68 | 252 | 0.0 | 0.0 | 0.00 | 0.00 | 0.00 | 92 | 1014.7 |
| 20260507074528 | 68 | 252 | 0.0 | 0.0 | 0.00 | 0.00 | 0.00 | 91 | 1014.9 |
| 20260507073024 | 69 | 252 | 0.0 | 0.0 | 0.00 | 0.00 | 0.00 | 91 | 1014.8 |
| 20260507071533 | 70 | 252 | 0.0 | 0.0 | 0.00 | 0.00 | 0.00 | 90 | 1014.9 |
| 20260507070026 | 70 | 252 | 0.0 | 1.0 | 0.00 | 0.00 | 0.00 | 90 | 1015.1 |
| 20260507064513 | 70 | 252 | 0.0 | 1.0 | 0.00 | 0.00 | 0.00 | 89 | 1015.2 |
| 20260507063020 | 71 | 252 | 0.0 | 0.0 | 0.00 | 0.00 | 0.00 | 88 | 1015.4 |
| 20260507061530 | 72 | 252 | 0.0 | 0.0 | 0.00 | 0.00 | 0.00 | 86 | 1015.6 |
| 20260507060028 | 73 | 252 | 0.0 | 1.0 | 0.00 | 0.00 | 0.00 | 85 | 1015.8 |
| 20260507054527 | 73 | 252 | 0.0 | 1.0 | 0.00 | 0.00 | 0.00 | 83 | 1015.9 |
| 20260507053023 | 74 | 193 | 0.0 | 3.0 | 0.00 | 0.00 | 0.00 | 82 | 1016.0 |
| 20260507051524 | 75 | 122 | 0.0 | 4.0 | 0.00 | 0.00 | 0.00 | 81 | 1016.0 |
| 20260507050024 | 75 | 228 | 1.0 | 4.0 | 0.00 | 0.00 | 0.00 | 80 | 1016.1 |
| 20260507044527 | 76 | 167 | 1.0 | 4.0 | 0.00 | 0.00 | 0.00 | 80 | 1015.9 |
| 20260507043016 | 76 | 27 | 0.0 | 4.0 | 0.00 | 0.00 | 0.00 | 79 | 1015.9 |
| 20260507041519 | 76 | 133 | 1.0 | 3.0 | 0.00 | 0.00 | 0.00 | 79 | 1015.8 |
| 20260507040024 | 76 | 162 | 3.0 | 7.0 | 0.00 | 0.00 | 0.00 | 79 | 1015.9 |
| 20260507034535 | 76 | 194 | 1.0 | 4.0 | 0.00 | 0.00 | 0.00 | 78 | 1015.9 |
| 20260507033026 | 76 | 212 | 1.0 | 4.0 | 0.00 | 0.00 | 0.00 | 79 | 1016.1 |
| 20260507031517 | 76 | 216 | 1.0 | 6.0 | 0.00 | 0.00 | 0.00 | 79 | 1016.0 |
| 20260507030024 | 76 | 143 | 1.0 | 6.0 | 0.00 | 0.00 | 0.00 | 78 | 1016.0 |
| 20260507024530 | 76 | 196 | 1.0 | 7.0 | 0.00 | 0.00 | 0.00 | 77 | 1015.9 |
| 20260507023028 | 76 | 198 | 2.0 | 5.0 | 0.00 | 0.00 | 0.00 | 76 | 1016.0 |
| 20260507021526 | 76 | 229 | 1.0 | 3.0 | 0.00 | 0.00 | 0.00 | 76 | 1016.1 |
| 20260507020019 | 76 | 200 | 2.0 | 5.0 | 0.00 | 0.00 | 0.00 | 74 | 1015.9 |
| 20260507014504 | 76 | 227 | 1.0 | 4.0 | 0.00 | 0.00 | 0.00 | 74 | 1016.0 |
| 20260507013012 | 76 | 212 | 0.0 | 6.0 | 0.00 | 0.00 | 0.00 | 74 | 1016.1 |
| 20260507011510 | 76 | 108 | 1.0 | 4.0 | 0.00 | 0.00 | 0.00 | 73 | 1016.0 |
| 20260507010029 | 76 | 247 | 0.0 | 5.0 | 0.00 | 0.00 | 0.00 | 72 | 1015.9 |
| 20260507004520 | 77 | 193 | 2.0 | 5.0 | 0.00 | 0.00 | 0.00 | 70 | 1015.7 |
| 20260507003007 | 77 | 75 | 1.0 | 4.0 | 0.00 | 0.00 | 0.00 | 67 | 1015.6 |
| 20260507001508 | 77 | 164 | 0.0 | 3.0 | 0.00 | 0.00 | 0.00 | 63 | 1015.5 |
| 20260507000014 | 78 | 11 | 1.0 | 4.0 | 0.00 | 0.00 | 0.00 | 61 | 1015.5 |
| 20260506234538 | 79 | 136 | 2.0 | 8.0 | 0.00 | 0.00 | 0.00 | 59 | 1015.5 |
| 20260506233020 | 79 | 272 | 0.0 | 6.0 | 0.00 | 0.00 | 0.00 | 58 | 1015.5 |
| 20260506231507 | 80 | 9 | 2.0 | 5.0 | 0.00 | 0.00 | 0.00 | 58 | 1015.5 |
| 20260506230009 | 80 | 151 | 1.0 | 7.0 | 0.00 | 0.00 | 0.00 | 61 | 1015.6 |
| 20260506224525 | 80 | 184 | 1.0 | 9.0 | 0.00 | 0.00 | 0.00 | 62 | 1015.6 |
| 20260506223023 | 81 | 142 | 2.0 | 6.0 | 0.00 | 0.00 | 0.00 | 63 | 1015.8 |
| 20260506221524 | 81 | 348 | 2.0 | 8.0 | 0.00 | 0.00 | 0.00 | 63 | 1015.8 |
| 20260506220024 | 81 | 42 | 2.0 | 9.0 | 0.00 | 0.00 | 0.00 | 63 | 1015.8 |
| 20260506214514 | 82 | 3 | 1.0 | 8.0 | 0.00 | 0.00 | 0.00 | 62 | 1015.8 |
| 20260506213019 | 82 | 75 | 4.0 | 8.0 | 0.00 | 0.00 | 0.00 | 62 | 1015.9 |
| 20260506211523 | 83 | 64 | 2.0 | 10.0 | 0.00 | 0.00 | 0.00 | 60 | 1015.7 |
| 20260506210026 | 83 | 181 | 3.0 | 10.0 | 0.00 | 0.00 | 0.00 | 60 | 1015.7 |
| 20260506204512 | 82 | 75 | 6.0 | 13.0 | 0.00 | 0.00 | 0.00 | 58 | 1015.8 |
| 20260506203015 | 84 | 1 | 4.0 | 8.0 | 0.00 | 0.00 | 0.00 | 58 | 1015.9 |
| 20260506201519 | 83 | 360 | 4.0 | 11.0 | 0.00 | 0.00 | 0.00 | 58 | 1015.9 |
| 20260506200026 | 83 | 20 | 3.0 | 15.0 | 0.00 | 0.00 | 0.00 | 59 | 1016.0 |
| 20260506194533 | 84 | 24 | 3.0 | 12.0 | 0.00 | 0.00 | 0.00 | 58 | 1016.1 |
| 20260506193012 | 85 | 167 | 3.0 | 10.0 | 0.00 | 0.00 | 0.00 | 58 | 1016.2 |
| 20260506191518 | 84 | 63 | 4.0 | 14.0 | 0.00 | 0.00 | 0.00 | 57 | 1016.3 |
| 20260506190022 | 85 | 46 | 5.0 | 12.0 | 0.00 | 0.00 | 0.00 | 57 | 1016.6 |
| 20260506184528 | 86 | 352 | 3.0 | 8.0 | 0.00 | 0.00 | 0.00 | 58 | 1016.7 |